Date String (YYYY-MM-DD hh:mm:ss) UTC,Instrument flags,absolute air pressure of the measurement (hPa),sample flow rate (lpm),inlet stack bypass flow (lpm),air temperature of the measurement (°C),ambient temperature measured by the external sensor (°C),aerosol sample conditioner tube jacket temperature (°C),OPC LED temperature (°C),internal box temperature (°C),relative humidity of the measurement (%),span deviation,mass concentration of particles derived from Lorenz-Mie calculation of OPC scattering (μg/m³),mass concentration of particles derived from Lorenz-Mie calculation of OPC scattering (μg/m³),mass concentration of particles derived from Lorenz-Mie calculation of OPC scattering (μg/m³)
DateTimeUTC,F1_M11,P_M11,Q1_M11,Q2_M11,T1_M11,T2_M11,T3_M11,T4_M11,T5_M11,U1_M11,ZSPAN_M11,X0_M11,X2_M11,X1_M11
2023-10-08 22:00:00,SystemResetWarning,0831.1,5.01,000.00,028.3,024.3,000.0,036.5,029.8,12.1,0000.0,0007.81,0002.33,0001.72
2023-10-08 22:01:00,SystemResetWarning,0831.1,5.01,000.00,028.2,024.7,000.0,036.5,029.7,11.9,0000.0,0007.94,0002.34,0001.72
2023-10-08 22:02:00,SystemResetWarning,0831.1,5.00,000.00,028.1,025.1,000.0,036.6,029.7,11.9,0000.0,0007.63,0002.32,0001.72
2023-10-08 22:03:00,SystemResetWarning,0831.1,5.00,000.00,028.1,025.5,000.0,036.6,029.7,12.1,0000.0,0007.42,0002.35,0001.72
2023-10-08 22:04:00,SystemResetWarning,0831.1,5.00,000.00,028.1,025.9,000.0,036.6,029.8,12.0,0000.0,0007.41,0002.34,0001.72
2023-10-08 22:05:00,SystemResetWarning,0831.1,5.01,000.00,028.2,026.3,000.0,036.6,029.9,12.0,0000.0,0007.77,0002.35,0001.72
2023-10-08 22:06:00,SystemResetWarning,0831.1,5.00,000.00,028.2,026.6,000.0,036.6,030.0,12.2,0000.0,0008.24,0002.42,0001.73
2023-10-08 22:07:00,SystemResetWarning,0831.1,5.00,000.00,028.3,026.8,000.0,036.6,030.1,11.9,0000.0,0008.13,0002.43,0001.73
2023-10-08 22:08:00,SystemResetWarning,0831.1,4.99,000.00,028.3,027.1,000.0,036.7,030.1,11.8,0000.0,0008.20,0002.44,0001.72
2023-10-08 22:09:00,SystemResetWarning,0831.1,5.00,000.00,028.4,027.3,000.0,036.7,030.2,11.8,0000.0,0007.75,0002.44,0001.73
2023-10-08 22:10:00,SystemResetWarning,0831.1,5.00,000.00,028.4,027.2,000.0,036.7,030.3,11.8,0000.0,0007.37,0002.41,0001.72
2023-10-08 22:11:00,SystemResetWarning,0831.1,4.98,000.00,028.4,025.5,000.0,036.7,030.1,11.8,0000.0,0006.48,0002.39,0001.71
2023-10-08 22:12:00,SystemResetWarning,0831.1,5.03,000.00,028.3,024.2,000.0,036.6,029.9,11.8,0000.0,0006.00,0002.35,0001.72
2023-10-08 22:13:00,SystemResetWarning,0831.1,5.00,000.00,028.2,024.3,000.0,036.5,029.8,12.0,0000.0,0005.87,0002.36,0001.73
2023-10-08 22:14:00,SystemResetWarning,0831.1,5.01,000.00,028.1,024.7,000.0,036.5,029.6,12.0,0000.0,0005.68,0002.34,0001.74
2023-10-08 22:15:00,SystemResetWarning,0831.1,4.99,000.00,028.1,025.1,000.0,036.6,029.6,12.0,0000.0,0006.26,0002.33,0001.73
2023-10-08 22:16:00,SystemResetWarning,0831.1,4.99,000.00,028.1,025.5,000.0,036.6,029.7,12.2,0000.0,0007.54,0002.33,0001.73
2023-10-08 22:17:00,SystemResetWarning,0831.1,5.00,000.00,028.1,025.9,000.0,036.6,029.8,12.1,0000.0,0007.10,0002.31,0001.73
2023-10-08 22:18:00,SystemResetWarning,0831.2,5.01,000.00,028.2,026.3,000.0,036.6,029.9,12.2,0000.0,0006.79,0002.26,0001.73
2023-10-08 22:19:00,SystemResetWarning,0831.1,4.99,000.00,028.2,026.6,000.0,036.6,030.0,12.2,0000.0,0006.83,0002.23,0001.73
2023-10-08 22:20:00,SystemResetWarning,0831.1,5.00,000.00,028.2,026.9,000.0,036.6,030.1,12.1,0000.0,0006.76,0002.22,0001.73
2023-10-08 22:21:00,SystemResetWarning,0831.2,5.00,000.00,028.3,027.1,000.0,036.7,030.1,11.9,0000.0,0006.94,0002.25,0001.73
2023-10-08 22:22:00,SystemResetWarning,0831.1,5.00,000.00,028.4,027.3,000.0,036.7,030.2,11.9,0000.0,0007.55,0002.26,0001.73
2023-10-08 22:23:00,SystemResetWarning,0831.1,4.99,000.00,028.4,027.0,000.0,036.7,030.2,11.7,0000.0,0007.87,0002.30,0001.74
2023-10-08 22:24:00,SystemResetWarning,0831.1,5.00,000.00,028.4,025.1,000.0,036.6,030.0,11.8,0000.0,0008.53,0002.30,0001.73
2023-10-08 22:25:00,SystemResetWarning,0831.2,5.00,000.00,028.3,024.1,000.0,036.6,029.8,11.9,0000.0,0008.93,0002.29,0001.74
2023-10-08 22:26:00,SystemResetWarning,0831.2,5.01,000.00,028.2,024.3,000.0,036.5,029.7,12.0,0000.0,0009.17,0002.29,0001.76
2023-10-08 22:27:00,SystemResetWarning,0831.1,5.01,000.00,028.1,024.7,000.0,036.5,029.6,12.1,0000.0,0008.79,0002.30,0001.76
2023-10-08 22:28:00,SystemResetWarning,0831.1,4.99,000.00,028.1,025.2,000.0,036.5,029.7,12.2,0000.0,0008.98,0002.30,0001.77
2023-10-08 22:29:00,SystemResetWarning,0831.1,4.99,000.00,028.1,025.6,000.0,036.6,029.7,12.4,0000.0,0008.96,0002.29,0001.77
2023-10-08 22:30:00,SystemResetWarning,0831.1,5.00,000.00,028.1,026.0,000.0,036.6,029.8,12.7,0000.0,0008.89,0002.26,0001.77
2023-10-08 22:31:00,SystemResetWarning,0831.1,5.00,000.00,028.2,026.4,000.0,036.6,029.9,12.7,0000.0,0009.44,0002.24,0001.76
2023-10-08 22:32:00,SystemResetWarning,0831.1,5.01,000.00,028.2,026.7,000.0,036.6,030.0,12.2,0000.0,0009.74,0002.27,0001.76
2023-10-08 22:33:00,SystemResetWarning,0831.1,5.00,000.00,028.3,026.9,000.0,036.6,030.0,12.3,0000.0,0009.67,0002.26,0001.77
2023-10-08 22:34:00,SystemResetWarning,0831.1,5.00,000.00,028.3,027.1,000.0,036.6,030.1,12.1,0000.0,0009.08,0002.23,0001.77
2023-10-08 22:35:00,SystemResetWarning,0831.1,5.00,000.00,028.4,027.3,000.0,036.7,030.2,12.0,0000.0,0008.47,0002.23,0001.77
2023-10-08 22:36:00,SystemResetWarning,0831.1,4.99,000.00,028.4,027.3,000.0,036.7,030.3,11.9,0000.0,0007.97,0002.23,0001.76
2023-10-08 22:37:00,SystemResetWarning,0831.1,4.99,000.00,028.4,025.9,000.0,036.7,030.2,11.8,0000.0,0007.63,0002.21,0001.75
2023-10-08 22:38:00,SystemResetWarning,0831.1,5.01,000.00,028.3,024.3,000.0,036.6,029.9,11.9,0000.0,0006.99,0002.25,0001.75
2023-10-08 22:39:00,SystemResetWarning,0831.2,5.01,000.00,028.3,024.3,000.0,036.6,029.8,12.0,0000.0,0005.72,0002.28,0001.76
2023-10-08 22:40:00,SystemResetWarning,0831.1,5.01,000.00,028.2,024.6,000.0,036.5,029.6,11.9,0000.0,0005.65,0002.27,0001.75
2023-10-08 22:41:00,SystemResetWarning,0831.1,4.99,000.00,028.1,025.0,000.0,036.6,029.6,12.1,0000.0,0005.83,0002.31,0001.75
2023-10-08 22:42:00,SystemResetWarning,0831.1,5.00,000.00,028.1,025.5,000.0,036.6,029.7,12.0,0000.0,0005.59,0002.36,0001.75
2023-10-08 22:43:00,SystemResetWarning,0831.1,5.00,000.00,028.1,025.9,000.0,036.6,029.8,11.9,0000.0,0005.52,0002.35,0001.74
2023-10-08 22:44:00,SystemResetWarning,0831.1,5.00,000.00,028.2,026.3,000.0,036.6,029.9,12.1,0000.0,0006.86,0002.33,0001.75
2023-10-08 22:45:00,SystemResetWarning,0831.1,5.01,000.00,028.2,026.6,000.0,036.6,030.0,12.1,0000.0,0007.05,0002.36,0001.75
2023-10-08 22:46:00,SystemResetWarning,0831.1,5.00,000.00,028.2,026.9,000.0,036.6,030.0,11.9,0000.0,0007.49,0002.37,0001.76
2023-10-08 22:47:00,SystemResetWarning,0831.1,5.00,000.00,028.3,027.1,000.0,036.6,030.1,11.8,0000.0,0007.60,0002.41,0001.77
2023-10-08 22:48:00,SystemResetWarning,0831.2,5.00,000.00,028.4,027.3,000.0,036.6,030.2,11.7,0000.0,0007.53,0002.37,0001.76
2023-10-08 22:49:00,SystemResetWarning,0831.2,4.99,000.00,028.4,027.1,000.0,036.7,030.3,11.9,0000.0,0007.74,0002.35,0001.76
2023-10-08 22:50:00,SystemResetWarning,0831.1,5.00,000.00,028.4,025.4,000.0,036.6,030.1,11.9,0000.0,0007.93,0002.31,0001.75
2023-10-08 22:51:00,SystemResetWarning,0831.0,5.00,000.00,028.3,024.2,000.0,036.6,029.8,11.8,0000.0,0007.98,0002.35,0001.75
2023-10-08 22:52:00,SystemResetWarning,0831.1,5.01,000.00,028.2,024.3,000.0,036.5,029.7,12.0,0000.0,0008.02,0002.36,0001.76
2023-10-08 22:53:00,SystemResetWarning,0831.0,5.01,000.00,028.1,024.6,000.0,036.5,029.6,12.0,0000.0,0008.53,0002.35,0001.76
2023-10-08 22:54:00,SystemResetWarning,0831.0,4.99,000.00,028.1,025.1,000.0,036.5,029.7,12.0,0000.0,0008.12,0002.33,0001.77
2023-10-08 22:55:00,SystemResetWarning,0831.0,5.00,000.00,028.1,025.6,000.0,036.5,029.7,12.1,0000.0,0007.27,0002.37,0001.78
2023-10-08 22:56:00,SystemResetWarning,0831.0,5.01,000.00,028.1,026.0,000.0,036.5,029.8,12.4,0000.0,0006.77,0002.35,0001.77
2023-10-08 22:57:00,SystemResetWarning,0831.0,5.00,000.00,028.1,026.3,000.0,036.6,029.9,12.2,0000.0,0007.18,0002.33,0001.77
2023-10-08 22:58:00,SystemResetWarning,0831.1,5.00,000.00,028.2,026.6,000.0,036.6,030.0,12.1,0000.0,0006.83,0002.33,0001.75
2023-10-08 22:59:00,SystemResetWarning,0831.1,5.00,000.00,028.2,026.9,000.0,036.6,030.1,11.9,0000.0,0006.80,0002.33,0001.75
